EW3700 Weather Reports


time (UTC)temp
F
wind
direction
speed
knots
gust
knots
rain 1hr
in
rain 24hr
in
rain mn
in
humidity
%
barometer
mb
20260502233017 66 203 1.7 7.0 0.00 0.00 0.00 33 1009.7
20260502232017 66 203 1.7 6.1 0.00 0.00 0.00 33 1009.8
20260502231017 66 203 0.9 8.7 0.00 0.00 0.00 32 1009.8
20260502230017 66 270 0.9 5.2 0.00 0.00 0.00 32 1009.8
20260502225037 66 270 1.7 6.1 0.00 0.00 0.00 32 1010.0
20260502224017 66 270 1.7 5.2 0.00 0.00 0.00 32 1010.1
20260502223037 65 270 2.6 6.1 0.00 0.00 0.00 32 1010.1
20260502222017 65 270 2.6 6.1 0.00 0.00 0.00 32 1010.2
20260502221037 65 270 2.6 9.6 0.00 0.00 0.00 32 1010.4
20260502220017 65 293 1.7 7.0 0.00 0.00 0.00 32 1010.6
20260502215017 66 270 1.7 6.1 0.00 0.00 0.00 31 1010.8
20260502214017 66 248 1.7 5.2 0.00 0.00 0.00 32 1010.9
20260502213017 66 293 4.3 12.2 0.00 0.00 0.00 31 1011.1
20260502212017 66 270 3.5 10.4 0.00 0.00 0.00 32 1011.2
20260502211017 67 270 3.5 14.8 0.00 0.00 0.00 31 1011.6
20260502210037 66 270 5.2 13.0 0.00 0.00 0.00 31 1011.6
20260502205037 66 293 2.6 9.6 0.00 0.00 0.00 31 1011.9
20260502204017 66 270 1.7 7.0 0.00 0.00 0.00 31 1012.1
20260502203037 66 293 2.6 7.8 0.00 0.00 0.00 31 1012.3
20260502202016 65 293 2.6 9.6 0.00 0.00 0.00 32 1012.6
20260502201017 65 293 3.5 12.2 0.00 0.00 0.00 32 1012.8
20260502200016 65 225 2.6 8.7 0.00 0.00 0.00 32 1013.0
20260502195016 65 293 2.6 10.4 0.00 0.00 0.00 32 1013.2
20260502194036 64 270 1.7 7.8 0.00 0.00 0.00 33 1013.4
20260502193016 64 158 2.6 7.0 0.00 0.00 0.00 32 1013.6
20260502192016 63 203 2.6 9.6 0.00 0.00 0.00 31 1013.7
20260502191016 63 225 0.9 6.1 0.00 0.00 0.00 32 1013.9
20260502190016 63 270 2.6 10.4 0.00 0.00 0.00 33 1014.1
20260502185016 62 270 2.6 6.1 0.00 0.00 0.00 34 1014.3
20260502184016 61 203 2.6 9.6 0.00 0.00 0.00 33 1014.6
20260502183016 61 270 2.6 9.6 0.00 0.00 0.00 33 1014.6
20260502182016 61 270 1.7 5.2 0.00 0.00 0.00 33 1014.9
20260502181016 60 248 1.7 5.2 0.00 0.00 0.00 33 1014.9
20260502164036 57 248 2.6 6.1 0.00 0.00 0.00 36 1016.2
20260502163016 56 225 1.7 4.3 0.00 0.00 0.00 36 1016.4
20260502162016 56 293 4.3 8.7 0.00 0.00 0.00 37 1016.6
20260502161016 56 293 4.3 8.7 0.00 0.00 0.00 34 1016.7
20260502152016 55 270 2.6 9.6 0.00 0.00 0.00 40 1017.3
20260502151016 54 270 2.6 9.6 0.00 0.00 0.00 40 1017.3
20260502123036 42 293 0.9 4.3 0.00 0.00 0.00 62 1017.8
20260502122015 41 293 0.9 2.6 0.00 0.00 0.00 64 1017.6
20260502121018 40 0.0 0.9 0.00 0.00 0.00 68 1017.6
20260502115018 37 0.0 1.7 0.00 0.00 0.00 76 1017.5
20260502114019 37 0.0 0.9 0.00 0.00 0.00 76 1017.5
20260502113037 36 0.0 0.0 0.00 0.00 0.00 75 1017.4
20260502112018 36 0.0 0.0 0.00 0.00 0.00 74 1017.3
20260502111017 37 0.0 0.0 0.00 0.00 0.00 73 1017.3
20260502110017 37 0.0 0.0 0.00 0.00 0.00 72 1017.2
20260502105037 37 0.0 0.0 0.00 0.00 0.00 72 1017.2
20260502104018 37 0.0 0.9 0.00 0.00 0.00 71 1017.2
20260502103017 38 0.0 0.0 0.00 0.00 0.00 70 1017.3
20260502102017 38 0.0 0.0 0.00 0.00 0.00 70 1017.2
20260502101017 38 0.0 0.0 0.00 0.00 0.00 69 1017.2
20260502091017 40 0.0 0.0 0.00 0.00 0.00 64 1017.0
20260502071017 44 293 1.7 4.3 0.00 0.00 0.00 55 1017.4
20260502070057 44 293 1.7 4.3 0.00 0.00 0.00 56 1017.5
20260502065037 44 293 0.9 4.3 0.00 0.00 0.00 57 1017.5
20260502064037 44 293 0.9 4.3 0.00 0.00 0.00 58 1017.5
20260502063017 44 0.0 1.7 0.00 0.00 0.00 58 1017.5
20260502062017 44 293 0.9 2.6 0.00 0.00 0.00 59 1017.6
20260502061037 43 0.0 1.7 0.00 0.00 0.00 60 1017.6
20260502060017 43 0.0 2.6 0.00 0.00 0.00 61 1017.7
20260502055017 43 0.0 0.9 0.00 0.00 0.00 62 1017.7
20260502054037 42 0.0 0.9 0.00 0.00 0.00 64 1017.6
20260502053017 42 0.0 1.7 0.00 0.00 0.00 65 1017.6
20260502052017 42 0.0 0.0 0.00 0.00 0.00 63 1017.6
20260502051017 42 0.0 0.0 0.00 0.00 0.00 62 1017.6
20260502050037 42 0.0 0.0 0.00 0.00 0.00 60 1017.5
20260502045017 43 0.0 0.0 0.00 0.00 0.00 59 1017.5
20260502044017 43 0.0 1.7 0.00 0.00 0.00 58 1017.5
20260502043017 42 0.0 1.7 0.00 0.00 0.00 58 1017.6
20260502042017 42 0.0 0.0 0.00 0.00 0.00 56 1017.5
20260502041017 43 0.0 0.0 0.00 0.00 0.00 54 1017.4
20260502040017 43 0.0 0.9 0.00 0.00 0.00 53 1017.5
20260502035017 43 0.0 0.0 0.00 0.00 0.00 51 1017.5
20260502034017 44 0.0 0.0 0.00 0.00 0.00 50 1017.5
20260502033017 44 0.0 0.0 0.00 0.00 0.00 49 1017.6
20260502032017 45 0.0 0.0 0.00 0.00 0.00 48 1017.6
20260502031017 45 0.0 0.0 0.00 0.00 0.00 47 1017.6
20260502030017 46 0.0 1.7 0.00 0.00 0.00 47 1017.6
20260502025017 46 0.0 0.9 0.00 0.00 0.00 46 1017.5
20260502024017 46 0.0 0.9 0.00 0.00 0.00 45 1017.6
20260502023017 46 0.0 0.0 0.00 0.00 0.00 44 1017.6
20260502022017 47 0.0 0.0 0.00 0.00 0.00 43 1017.6
20260502021017 48 0.0 0.0 0.00 0.00 0.00 42 1017.5
20260502020017 49 0.0 0.0 0.00 0.00 0.00 40 1017.4
20260502015017 49 0.0 0.9 0.00 0.00 0.00 38 1017.3
20260502014017 50 0.0 0.0 0.00 0.00 0.00 37 1017.1
20260502013017 51 0.0 2.6 0.00 0.00 0.00 35 1017.1
20260502012017 51 0.0 1.7 0.00 0.00 0.00 34 1017.1
20260502011037 51 293 0.9 3.5 0.00 0.00 0.00 33 1017.1
20260502010017 52 293 0.9 2.6 0.00 0.00 0.00 33 1017.0
20260502005017 52 293 0.9 3.5 0.00 0.00 0.00 32 1016.9
20260502004017 53 293 2.6 7.0 0.00 0.00 0.00 32 1017.0
20260502003017 53 270 2.6 6.1 0.00 0.00 0.00 32 1017.0
20260502002017 54 293 1.7 7.0 0.00 0.00 0.00 31 1017.0
20260502001017 54 293 0.9 3.5 0.00 0.00 0.00 31 1017.0
20260502000017 54 293 2.6 7.0 0.00 0.00 0.00 31 1017.0
20260501235017 54 293 0.9 5.2 0.00 0.00 0.00 31 1017.0
20260501234017 53 293 0.9 3.5 0.00 0.00 0.00 32 1016.9